Regional Weather Roundup
Issued by NWS Jackson, KY

Home | Current Version | Previous Version | Text Only | Print | Product List | Glossary On
Versions: 1 2 3 4 5 6 7 8 9 10 11 12 13 14 15 16 17 18 19 20 21 22 23 24 25 26 27 28 29 30 31 32 33 34 35 36 37 38 39 40 41 42 43 44 45 46 47 48 49 50
000
ASUS43 KJKL 202019
RWRJKL

EAST KENTUCKY HOURLY WEATHER ROUNDUP
NATIONAL WEATHER SERVICE JACKSON KY
300 PM EST SAT DEC 20 2014

NOTE: "FAIR" INDICATES FEW OR NO CLOUDS BELOW 12,000 FEET WITH
NO SIGNIFICANT WEATHER AND/OR OBSTRUCTIONS TO VISIBILITY.

* THESE REPORTS ARE NOT UNDER NWS QUALITY CONTROL AND MAY NOT
  REPORT WEATHER SUCH AS PRECIPITATION AND FOG.

KYZ079-080-083-085-087-088-110-112-115-119-120-202100
...EASTERN KENTUCKY...

CITY           SKY/WX    TMP DP  RH WIND       PRES   REMARKS
JACKSON        CLOUDY    38  25  59 CALM      30.18F
LONDON         CLOUDY    41  26  55 NW3       30.19F
SOMERSET*      CLOUDY    37  27  65 CALM      30.23R
MONTICELLO*    CLOUDY    41  27  57 CALM      30.24S
MIDDLESBORO*   CLOUDY    43  33  66 NE5       30.18S
HARLAN APT*    CLOUDY    43  30  61 NW6       30.16S
HAZARD APT*    CLOUDY    37  28  70 CALM      30.19
BLACK MTN*       N/A     32  30  93 NW2         N/A
PIKEVILLE APT* CLOUDY    36  28  75 CALM      30.18F
BIG SANDY*     CLOUDY    36  27  70 CALM      30.21S
MOREHEAD APT*  CLOUDY    34  27  75 N5        30.24F WCI  30
ASHLAND*       CLOUDY    36  21  55 CALM      30.23
$$

KYZ035-036-041-042-044-050-067-078-099-202100
...CENTRAL KENTUCKY...

CITY           SKY/WX    TMP DP  RH WIND       PRES   REMARKS
MT STERLING*   CLOUDY    34  28  80 CALM      30.23F
FLEMING/MASON* CLOUDY    32  27  80 N3        30.25S
DANVILLE*      CLOUDY    36  28  75 CALM      30.22F
RICHMOND*      CLOUDY    36  27  69 CALM      30.21F
LEXINGTON      CLOUDY    35  26  69 N3        30.22F
FRANKFORT      CLOUDY    35  25  66 CALM      30.22F
$$

KYZ091>093-OHZ055-061-077-WVZ005-015-034-035-042-202100
...SOUTHERN OHIO/WEST VIRGINIA...

CITY           SKY/WX    TMP DP  RH WIND       PRES   REMARKS
COVINGTON      CLOUDY    32  24  72 CALM      30.24F
COLUMBUS       CLOUDY    31  22  69 CALM      30.24F
DAYTON         CLOUDY    32  22  66 CALM      30.25S
WILMINGTON     CLOUDY    30  22  72 N3        30.23F
HUNTINGTON     CLOUDY    34  24  67 N5        30.23S WCI  30
CHARLESTON     CLOUDY    36  24  62 NW6       30.22R WCI  31
PINEVILLE*     CLOUDY    38  35  86 MISG      30.21S
BECKLEY        CLOUDY    36  31  82 SW3       30.13R
BLUEFIELD      CLOUDY    36  32  85 CALM      30.13R FOG
$$

VAZ002-007-008-TNZ017-027-036-066-071-202100
...SOUTHWEST VIRGINIA/EAST TENNESSEE...

CITY           SKY/WX    TMP DP  RH WIND       PRES   REMARKS
WISE*          CLOUDY    39  32  75 CALM      30.13F
JONESVILLE*    CLOUDY    43  32  65 CALM      30.19R
ABINGDON*      CLOUDY    42  36  80 CALM      30.15R
BRISTOL        CLOUDY    42  36  79 CALM      30.16S
KNOXVILLE      CLOUDY    42  33  70 CALM      30.19S
OAK RIDGE      CLOUDY    46  31  55 CALM      30.20R
CROSSVILLE     PTSUNNY   46  29  51 W7        30.16S
NASHVILLE      CLOUDY    45  27  49 NW6       30.23F
$$

...KEY TO REMARKS...
VSB - VISIBILITY IN MILES
WCI - WIND CHILL INDEX
HX  - HEAT INDEX

$$


USA.gov is the U.S. government's official web portal to all federal, state and local government web resources and services.